This is the latest recevied weather packets stored in our database for station/object HK6LRQ-26. If no packets are shown the sender has not sent any weather packets the latest 10 day(s).
| Time | Temp. | Humidity | Pressure | Rain* | Wind** | Luminosity | Snow |
|---|---|---|---|---|---|---|---|
| 1787435256 | 20.56° C | 79% | 1012 hPa | 0 mm | - | - | - |
| 1787433454 | 20.56° C | 79% | 1012 hPa | 0 mm | - | - | - |
| 1787431653 | 21.11° C | 79% | 1012 hPa | 0 mm | - | - | - |
| 1787429852 | 21.67° C | 79% | 1012 hPa | 0 mm | - | - | - |
| 1787428051 | 21.67° C | 79% | 1012 hPa | 0 mm | - | - | - |
| 1787426251 | 21.67° C | 79% | 1012 hPa | 0 mm | - | - | - |
| 1787424449 | 21.67° C | 81% | 1012 hPa | 0 mm | - | - | - |
| 1787422649 | 21.11° C | 83% | 1013 hPa | 0 mm | - | - | - |
| 1787420848 | 21.67° C | 83% | 1013 hPa | 0 mm | - | - | - |
| 1787419046 | 21.67° C | 83% | 1014 hPa | 0 mm | - | - | - |
| 1787417246 | 21.67° C | 84% | 1014 hPa | 0 mm | - | - | - |
| 1787415445 | 21.67° C | 85% | 1015 hPa | 0 mm | - | - | - |
| 1787413644 | 21.67° C | 87% | 1015 hPa | 0 mm | - | - | - |
| 1787411843 | 21.67° C | 87% | 1015 hPa | 0 mm | - | - | - |
| 1787410041 | 21.67° C | 87% | 1015 hPa | 0 mm | - | - | - |
| 1787408239 | 18.33° C | 93% | 1015 hPa | 0 mm | - | - | - |
| 1787406438 | 18.89° C | 94% | 1015 hPa | 0 mm | - | - | - |
| 1787404637 | 17.22° C | 89% | 1015 hPa | 0 mm | - | - | - |
| 1787402836 | 17.78° C | 85% | 1015 hPa | 0 mm | - | - | - |
| 1787401035 | 17.78° C | 83% | 1016 hPa | 0 mm | - | - | - |
| 1787399234 | 14.44° C | 62% | 1016 hPa | 0 mm | - | - | - |
| 1787397433 | 14.44° C | 62% | 1016 hPa | 0 mm | - | - | - |
| 1787395632 | 14.44° C | 62% | 1016 hPa | 0 mm | - | - | - |
| 1787393830 | 14.44° C | 62% | 1015 hPa | 0 mm | - | - | - |
| 1787392029 | 14.44° C | 62% | 1015 hPa | 0 mm | - | - | - |
* Rain latest hour (hover to see other rain measurements)
** Current wind speed in m/s (hover to see current wind gust speed)